User: anonymous   Login
Location: Unspecified
(0.0000°N, 0.0000°E)
Time: 19:14:40
(UTC+00:00)
Language:

KAGAYAKI - Orbit

View from above orbital plane
View from above orbital plane
View from above satellite
View from above satellite

Ground track
Ground track

The orbit data is extracted from the following two-line orbital elements,

1 33495U 09002D   18140.49354169  .00000022  00000-0  11928-4 0  9999
2 33495  98.3661 309.2294 0008999  45.6593 314.5350 14.72082371500466
Epoch (UTC): 20 May 2018 11:50:42
Eccentricity: 0.0008999
inclination: 98.3661°
perigee height: 648 km
apogee height: 661 km
right ascension of ascending node: 309.2294°
argument of perigee: 45.6593°
revolutions per day: 14.72082371
mean anomaly at epoch: 314.5350°
orbit number at epoch: 50046

The dashed part of the orbit path shows where the satellite is in the earth's shadow,  

DLR